When you browse on this site, cookies collect data to enhance your experience and personalize the content and advertising you see.
Visit our Privacy Policy to learn more. By continuing to use the site, you agree to this use of cookies and data.
  • En España
  • Lista de países
  • Para 7 días
  • Temperatura del agua
  • Mapa Satelital
  • El tiempo en el mapa
  • Informadores
  • user-avatar
    Iniciar sesión

    Tiempo cada hora Dzhezkazgan

    Hoy, 19 Junio, Miércoles

    Tiempo Temperatura Precipitaciones Viento Presión Humedad
    00:00 +25°C° 0 mm 3 mps 739 mmHg 20%
    01:00 +25°C° 0 mm 3 mps 739 mmHg 20%
    02:00 +24°C° 0 mm 2 mps 739 mmHg 21%
    03:00 +23°C° 0 mm 2 mps 739 mmHg 22%
    04:00 +23°C° 0 mm 2 mps 739 mmHg 23%
    05:00 +25°C° 0 mm 2 mps 739 mmHg 21%
    06:00 +27°C° 0 mm 2 mps 740 mmHg 18%
    07:00 +29°C° 0 mm 2 mps 740 mmHg 15%
    08:00 +30°C° 0 mm 3 mps 740 mmHg 14%
    09:00 +31°C° 0 mm 3 mps 740 mmHg 13%
    10:00 +33°C° 0 mm 3 mps 740 mmHg 12%
    11:00 +33°C° 0 mm 4 mps 740 mmHg 11%
    12:00 +34°C° 0 mm 4 mps 740 mmHg 10%
    13:00 +35°C° 0 mm 4 mps 739 mmHg 10%
    14:00 +35°C° 0 mm 4 mps 739 mmHg 9%
    15:00 +35°C° 0 mm 4 mps 739 mmHg 9%
    16:00 +35°C° 0 mm 5 mps 739 mmHg 9%
    17:00 +34°C° 0 mm 4 mps 739 mmHg 10%
    18:00 +33°C° 0 mm 4 mps 739 mmHg 12%
    19:00 +32°C° 0 mm 4 mps 739 mmHg 13%
    20:00 +30°C° 0 mm 4 mps 739 mmHg 15%
    21:00 +29°C° 0 mm 4 mps 739 mmHg 17%
    22:00 +28°C° 0 mm 4 mps 739 mmHg 18%
    23:00 +27°C° 0 mm 4 mps 739 mmHg 19%

    Mañana, 20 Junio, Jueves

    Tiempo Temperatura Precipitaciones Viento Presión Humedad
    00:00 +27°C° 0 mm 3 mps 739 mmHg 19%
    01:00 +26°C° 0 mm 3 mps 739 mmHg 20%
    02:00 +26°C° 0 mm 3 mps 739 mmHg 21%
    03:00 +25°C° 0 mm 3 mps 739 mmHg 21%
    04:00 +25°C° 0 mm 3 mps 739 mmHg 22%
    05:00 +27°C° 0 mm 4 mps 740 mmHg 20%
    06:00 +29°C° 0 mm 5 mps 740 mmHg 18%
    07:00 +32°C° 0 mm 5 mps 740 mmHg 16%
    08:00 +33°C° 0 mm 5 mps 740 mmHg 16%
    09:00 +34°C° 0 mm 5 mps 740 mmHg 15%
    10:00 +35°C° 0 mm 5 mps 740 mmHg 15%
    11:00 +36°C° 0 mm 5 mps 740 mmHg 14%
    12:00 +36°C° 0 mm 4 mps 740 mmHg 13%
    13:00 +36°C° 0 mm 4 mps 739 mmHg 12%
    14:00 +37°C° 0 mm 4 mps 739 mmHg 12%
    15:00 +37°C° 0 mm 5 mps 739 mmHg 12%
    16:00 +37°C° 0 mm 5 mps 739 mmHg 12%
    17:00 +36°C° 0 mm 5 mps 739 mmHg 14%
    18:00 +34°C° 0 mm 5 mps 739 mmHg 15%
    19:00 +33°C° 0 mm 5 mps 739 mmHg 17%
    20:00 +32°C° 0 mm 5 mps 739 mmHg 18%
    21:00 +30°C° 0 mm 5 mps 739 mmHg 19%
    22:00 +29°C° 0 mm 5 mps 739 mmHg 20%
    23:00 +28°C° 0 mm 5 mps 739 mmHg 19%

    Pasado mañana, 21 Junio, Viernes

    Tiempo Temperatura Precipitaciones Viento Presión Humedad
    00:00 +28°C° 0 mm 5 mps 739 mmHg 19%
    01:00 +28°C° 0 mm 5 mps 739 mmHg 18%
    02:00 +27°C° 0 mm 5 mps 739 mmHg 18%
    03:00 +27°C° 0 mm 5 mps 739 mmHg 19%
    04:00 +26°C° 0 mm 5 mps 739 mmHg 19%
    05:00 +28°C° 0 mm 5 mps 739 mmHg 17%
    06:00 +30°C° 0 mm 6 mps 739 mmHg 15%
    07:00 +33°C° 0 mm 6 mps 740 mmHg 14%
    08:00 +34°C° 0 mm 6 mps 740 mmHg 13%
    09:00 +35°C° 0 mm 6 mps 740 mmHg 13%
    10:00 +36°C° 0 mm 6 mps 740 mmHg 13%
    11:00 +38°C° 0 mm 6 mps 739 mmHg 13%
    12:00 +38°C° 0 mm 6 mps 739 mmHg 12%
    13:00 +39°C° 0 mm 7 mps 739 mmHg 12%
    14:00 +39°C° 0 mm 7 mps 739 mmHg 13%
    15:00 +38°C° 0 mm 7 mps 739 mmHg 13%
    16:00 +38°C° 0 mm 7 mps 739 mmHg 14%
    17:00 +36°C° 0 mm 6 mps 739 mmHg 15%
    18:00 +35°C° 0 mm 6 mps 739 mmHg 16%
    19:00 +34°C° 0 mm 5 mps 739 mmHg 18%
    20:00 +32°C° 0 mm 5 mps 739 mmHg 19%
    21:00 +30°C° 0 mm 5 mps 739 mmHg 21%
    22:00 +29°C° 0 mm 4 mps 739 mmHg 22%
    23:00 +29°C° 0 mm 4 mps 739 mmHg 23%

    22 Junio, Sábado

    Tiempo Temperatura Precipitaciones Viento Presión Humedad
    00:00 +28°C° 0 mm 4 mps 739 mmHg 24%
    01:00 +28°C° 0 mm 4 mps 739 mmHg 26%
    02:00 +27°C° 0 mm 4 mps 739 mmHg 27%
    03:00 +26°C° 0 mm 3 mps 739 mmHg 28%
    04:00 +26°C° 0 mm 3 mps 739 mmHg 29%
    05:00 +28°C° 0 mm 3 mps 739 mmHg 26%
    06:00 +30°C° 0 mm 3 mps 740 mmHg 24%
    07:00 +33°C° 0 mm 3 mps 740 mmHg 21%
    08:00 +34°C° 0 mm 4 mps 741 mmHg 20%
    09:00 +35°C° 0 mm 5 mps 741 mmHg 19%
    10:00 +36°C° 0 mm 6 mps 741 mmHg 18%
    11:00 +36°C° 0 mm 6 mps 741 mmHg 17%
    12:00 +38°C° 0 mm 7 mps 741 mmHg 16%
    13:00 +38°C° 0 mm 7 mps 741 mmHg 15%
    14:00 +36°C° 0 mm 7 mps 741 mmHg 13%
    15:00 +36°C° 0 mm 7 mps 741 mmHg 13%
    16:00 +36°C° 0 mm 7 mps 741 mmHg 13%
    17:00 +35°C° 0 mm 6 mps 741 mmHg 14%
    18:00 +34°C° 0 mm 5 mps 741 mmHg 15%
    19:00 +33°C° 0 mm 4 mps 741 mmHg 16%
    20:00 +32°C° 0 mm 4 mps 741 mmHg 18%
    21:00 +30°C° 0 mm 4 mps 741 mmHg 19%
    22:00 +28°C° 0 mm 3 mps 742 mmHg 21%
    23:00 +28°C° 0 mm 3 mps 742 mmHg 22%

    23 Junio, Domingo

    Tiempo Temperatura Precipitaciones Viento Presión Humedad
    00:00 +27°C° 0 mm 3 mps 742 mmHg 24%
    01:00 +27°C° 0 mm 3 mps 742 mmHg 25%
    02:00 +27°C° 0 mm 4 mps 742 mmHg 30%
    03:00 +26°C° 0 mm 5 mps 742 mmHg 34%
    04:00 +26°C° 0 mm 6 mps 743 mmHg 38%
    05:00 +27°C° 0 mm 6 mps 743 mmHg 36%
    06:00 +28°C° 0 mm 7 mps 743 mmHg 34%
    07:00 +30°C° 0 mm 7 mps 743 mmHg 32%
    08:00 +32°C° 0 mm 8 mps 744 mmHg 28%
    09:00 +33°C° 0 mm 8 mps 744 mmHg 23%
    10:00 +34°C° 0 mm 8 mps 744 mmHg 18%
    11:00 +35°C° 0 mm 9 mps 744 mmHg 17%
    12:00 +35°C° 0 mm 9 mps 743 mmHg 16%
    13:00 +37°C° 0 mm 9 mps 743 mmHg 14%
    14:00 +37°C° 0 mm 9 mps 743 mmHg 14%
    15:00 +37°C° 0 mm 9 mps 742 mmHg 14%
    16:00 +37°C° 0 mm 9 mps 742 mmHg 14%
    17:00 +35°C° 0 mm 8 mps 742 mmHg 15%
    18:00 +33°C° 0 mm 8 mps 742 mmHg 16%
    19:00 +32°C° 0 mm 7 mps 742 mmHg 17%
    20:00 +30°C° 0 mm 7 mps 742 mmHg 16%
    21:00 +29°C° 0 mm 8 mps 742 mmHg 15%
    22:00 +28°C° 0 mm 8 mps 743 mmHg 15%
    23:00 +27°C° 0 mm 8 mps 742 mmHg 15%

    24 Junio, Lunes

    Tiempo Temperatura Precipitaciones Viento Presión Humedad
    00:00 +27°C° 0 mm 8 mps 742 mmHg 16%
    01:00 +26°C° 0 mm 8 mps 742 mmHg 17%
    02:00 +24°C° 0 mm 7 mps 742 mmHg 18%
    03:00 +24°C° 0 mm 7 mps 742 mmHg 19%
    04:00 +23°C° 0 mm 7 mps 742 mmHg 21%
    05:00 +26°C° 0 mm 8 mps 742 mmHg 19%
    06:00 +28°C° 0 mm 8 mps 743 mmHg 17%
    07:00 +31°C° 0 mm 9 mps 743 mmHg 15%
    08:00 +32°C° 0 mm 10 mps 743 mmHg 14%
    09:00 +33°C° 0 mm 10 mps 743 mmHg 12%
    10:00 +36°C° 0 mm 11 mps 743 mmHg 11%
    11:00 +36°C° 0 mm 11 mps 742 mmHg 11%
    12:00 +37°C° 0 mm 11 mps 742 mmHg 11%
    13:00 +38°C° 0 mm 11 mps 742 mmHg 10%
    14:00 +38°C° 0 mm 10 mps 741 mmHg 10%
    15:00 +38°C° 0 mm 10 mps 741 mmHg 11%
    16:00 +38°C° 0 mm 10 mps 741 mmHg 11%
    17:00 +37°C° 0 mm 9 mps 741 mmHg 13%
    18:00 +34°C° 0 mm 8 mps 741 mmHg 15%
    19:00 +33°C° 0 mm 7 mps 741 mmHg 17%
    20:00 +32°C° 0 mm 6 mps 741 mmHg 19%
    21:00 +30°C° 0 mm 6 mps 741 mmHg 21%
    22:00 +29°C° 0 mm 6 mps 741 mmHg 23%
    23:00 +29°C° 0 mm 5 mps 741 mmHg 24%
    Mostrar más